Location: Newark
(45.8667°N, 9.7333°E)
Time: 05:09:13
(UTC+00:00)

S-56A Canister/Altair - Visible Passes

Search period start: 28 January 2020 00:00
Search period end: 07 February 2020 00:00
Orbit: 634 x 2498 km, 38.9° (Epoch: 27 January)

Date Brightness Start Highest point End Pass type
(mag) Time Alt. Az. Time Alt. Az. Time Alt. Az.
28 Jan 9.9 17:02:20 10° SSW 17:08:11 19° SSE 17:12:45 10° ESE visible
28 Jan 8.9 19:05:10 10° SW 19:11:09 35° S 19:11:09 35° S visible
29 Jan 8.7 18:32:00 10° SW 18:39:09 36° SSE 18:40:21 33° SE visible
29 Jan 10.4 20:36:42 10° WSW 20:37:47 14° WSW 20:37:47 14° WSW visible
30 Jan 9.1 17:58:45 10° SW 18:06:27 36° SSE 18:09:32 23° ESE visible
30 Jan 9.6 20:03:34 10° WSW 20:06:58 26° WSW 20:06:58 26° WSW visible
31 Jan 9.4 17:25:29 10° SW 17:33:43 35° SSE 17:38:43 14° ESE visible
31 Jan 8.9 19:30:21 10° WSW 19:36:09 40° SSW 19:36:09 40° SSW visible
01 Feb 9.7 16:52:10 10° SW 17:00:56 35° SSE 17:07:04 10° E visible
01 Feb 8.5 18:57:02 10° WSW 19:04:46 47° S 19:05:19 46° SSE visible
01 Feb 10.7 21:02:29 10° W 21:02:44 11° W 21:02:44 11° W visible
02 Feb 8.7 18:23:40 10° WSW 18:32:04 48° S 18:34:28 34° SE visible
02 Feb 10.0 20:29:16 10° W 20:31:54 21° WSW 20:31:54 21° WSW visible
03 Feb 9.0 17:50:13 10° WSW 17:59:19 49° S 18:03:37 21° ESE visible
03 Feb 9.3 19:55:59 10° W 20:01:03 33° SW 20:01:03 33° SW visible
04 Feb 9.2 17:16:43 10° WSW 17:26:30 49° S 17:32:47 11° E visible
04 Feb 8.7 19:22:37 10° W 19:30:13 44° SSW 19:30:13 44° SSW visible
05 Feb 8.7 18:49:10 10° W 18:57:37 48° S 18:59:23 39° SSE visible
05 Feb 10.5 20:55:28 10° W 20:56:49 14° WSW 20:56:49 14° WSW visible
06 Feb 9.0 18:15:39 10° W 18:24:54 51° S 18:28:34 26° SE visible
06 Feb 9.9 20:22:01 10° W 20:26:00 23° WSW 20:26:00 23° WSW visible
